KC1HBM Weather Reports


Display with metric or nautical units.
time (UTC)temp
F
wind
direction
speed
MPH
gust
MPH
rain 1hr
in
rain 24hr
in
rain mn
in
humidity
%
barometer
mb
20260505163617 64 214 1.0 2.0 0.00 0.00 0.00 70 1005.0
20260505163114 63 318 0.0 1.0 0.00 0.00 0.00 70 1005.3
20260505162612 63 354 2.0 3.0 0.00 0.00 0.00 71 1005.3
20260505162110 64 303 1.0 2.0 0.00 0.00 0.00 71 1005.4
20260505161606 63 310 1.0 1.0 0.00 0.00 0.00 72 1005.4
20260505161104 63 335 1.0 1.0 0.00 0.00 0.00 71 1005.6
20260505160601 63 343 4.0 6.0 0.00 0.00 0.00 70 1005.7
20260505153038 65 310 2.0 2.0 0.00 0.00 0.00 69 1006.0
20260505152535 65 315 2.0 2.0 0.00 0.00 0.00 70 1006.1
20260505152030 66 290 2.0 2.0 0.00 0.00 0.00 68 1006.3
20260505151525 65 308 2.0 2.0 0.00 0.00 0.00 69 1006.0
20260505151023 64 302 2.0 2.0 0.00 0.00 0.00 69 1006.2
20260505150519 63 331 2.0 2.0 0.00 0.00 0.00 72 1006.1
20260505140444 62 316 3.0 3.0 0.00 0.00 0.00 72 1006.1
20260505124858 60 315 1.0 2.0 0.00 0.00 0.00 74 1006.0
20260505124355 59 353 3.0 3.0 0.00 0.00 0.00 74 1006.1
20260505123851 57 341 1.0 2.0 0.00 0.00 0.00 76 1005.8
20260505123347 58 326 2.0 3.0 0.00 0.00 0.00 76 1005.9
20260505122843 57 298 2.0 3.0 0.00 0.00 0.00 77 1006.0
20260505122341 56 310 3.0 5.0 0.00 0.00 0.00 78 1006.1
20260505121838 58 318 1.0 2.0 0.00 0.00 0.00 77 1006.1
20260505121335 58 308 2.0 3.0 0.00 0.00 0.00 76 1006.1
20260505120831 56 309 1.0 2.0 0.00 0.00 0.00 80 1006.1
20260505120327 55 10 1.0 2.0 0.00 0.00 0.00 81 1006.3
20260505115826 56 323 1.0 2.0 0.00 0.00 0.00 79 1006.5
20260505115323 56 325 2.0 3.0 0.00 0.00 0.00 80 1006.6
20260505114821 55 301 2.0 2.0 0.00 0.00 0.00 80 1006.4
20260505114317 55 287 2.0 2.0 0.00 0.00 0.00 82 1006.6
20260505113813 54 320 1.0 1.0 0.00 0.00 0.00 83 1006.6
20260505113310 53 310 1.0 2.0 0.00 0.00 0.00 85 1006.7
20260505112806 53 332 0.0 1.0 0.00 0.00 0.00 84 1006.8
20260505112305 53 318 1.0 1.0 0.00 0.00 0.00 84 1006.5
20260505111759 53 55 3.0 3.0 0.00 0.00 0.00 83 1006.5
20260505111254 53 342 0.0 1.0 0.00 0.00 0.00 84 1006.6
20260505110750 53 320 0.0 1.0 0.00 0.00 0.00 84 1006.5
20260505110249 53 328 2.0 3.0 0.00 0.00 0.00 84 1006.3
20260505101722 50 339 4.0 6.0 0.00 0.00 0.00 88 1006.4
20260505101218 50 313 3.0 5.0 0.00 0.00 0.00 88 1006.5
20260505100715 50 349 2.0 2.0 0.00 0.00 0.00 88 1006.4
20260505100212 50 297 1.0 1.0 0.00 0.00 0.00 88 1006.5
20260505095707 50 323 2.0 3.0 0.00 0.00 0.00 88 1006.3
20260505095206 50 301 3.0 3.0 0.00 0.00 0.00 88 1006.4
20260505094701 50 17 3.0 3.0 0.00 0.00 0.00 88 1006.3
20260505094157 50 317 1.0 2.0 0.00 0.00 0.00 87 1006.2
20260505093654 50 317 1.0 1.0 0.00 0.00 0.00 86 1006.5
20260505093151 50 311 2.0 2.0 0.00 0.00 0.00 85 1006.3
20260505092648 51 319 0.0 0.0 0.00 0.00 0.00 84 1006.3
20260505092147 51 309 1.0 1.0 0.00 0.00 0.00 84 1006.3
20260505091643 51 332 1.0 1.0 0.00 0.00 0.00 84 1006.4
20260505091141 50 326 1.0 1.0 0.00 0.00 0.00 85 1006.3
20260505090639 50 309 1.0 2.0 0.00 0.00 0.00 87 1006.3
20260505090137 49 313 0.0 1.0 0.00 0.00 0.00 88 1006.5
20260505085634 49 315 0.0 0.0 0.00 0.00 0.00 88 1006.3
20260505085132 49 314 0.0 0.0 0.00 0.00 0.00 89 1006.6
20260505084629 49 317 0.0 0.0 0.00 0.00 0.00 89 1006.7
20260505084128 49 313 0.0 0.0 0.00 0.00 0.00 89 1006.7
20260505083625 48 314 0.0 0.0 0.00 0.00 0.00 90 1006.4
20260505083121 48 314 0.0 0.0 0.00 0.00 0.00 90 1006.6
20260505082617 48 313 0.0 0.0 0.00 0.00 0.00 90 1006.7
20260505082114 48 314 0.0 0.0 0.00 0.00 0.00 90 1006.6
20260505081610 48 314 0.0 0.0 0.00 0.00 0.00 90 1006.6
20260505081108 48 315 0.0 0.0 0.00 0.00 0.00 89 1006.7
20260505080604 48 314 0.0 0.0 0.00 0.00 0.00 88 1006.7
20260505075556 49 313 0.0 0.0 0.00 0.00 0.00 87 1006.9
20260505075053 49 319 0.0 0.0 0.00 0.00 0.00 86 1006.9
20260505074550 50 314 0.0 0.0 0.00 0.00 0.00 85 1006.8
20260505074048 49 317 0.0 0.0 0.00 0.00 0.00 85 1006.7
20260505073545 49 314 0.0 0.0 0.00 0.00 0.00 85 1006.7
20260505073044 49 314 0.0 0.0 0.00 0.00 0.00 85 1006.8
20260505072539 50 315 0.0 0.0 0.00 0.00 0.00 84 1006.8
20260505072035 50 313 0.0 0.0 0.00 0.00 0.00 82 1006.6
20260505071530 50 313 0.0 0.0 0.00 0.00 0.00 81 1006.6
20260505071029 51 313 0.0 0.0 0.00 0.00 0.00 80 1006.5
20260505070526 51 312 0.0 1.0 0.00 0.00 0.00 80 1006.6
20260505070022 51 318 0.0 1.0 0.00 0.00 0.00 80 1006.7
20260505065518 51 309 0.0 0.0 0.00 0.00 0.00 80 1006.7
20260505065015 51 310 0.0 0.0 0.00 0.00 0.00 79 1006.5
20260505064512 52 330 1.0 1.0 0.00 0.00 0.00 79 1006.6
20260505064010 52 330 1.0 1.0 0.00 0.00 0.00 79 1006.5
20260505063507 52 311 0.0 0.0 0.00 0.00 0.00 79 1006.3
20260505063002 52 312 0.0 1.0 0.00 0.00 0.00 79 1006.7
20260505062500 51 325 1.0 2.0 0.00 0.00 0.00 80 1006.5
20260505061956 51 317 0.0 0.0 0.00 0.00 0.00 79 1006.4
20260505061454 51 315 0.0 0.0 0.00 0.00 0.00 79 1006.4
20260505060952 52 315 0.0 0.0 0.00 0.00 0.00 78 1006.5
20260505060449 53 316 0.0 1.0 0.00 0.00 0.00 75 1006.4
20260505055945 55 315 0.0 0.0 0.00 0.00 0.00 71 1006.7
20260505055441 55 319 1.0 1.0 0.00 0.00 0.00 68 1006.5
20260505054938 56 322 0.0 1.0 0.00 0.00 0.00 67 1006.3
20260505054435 57 337 2.0 2.0 0.00 0.00 0.00 65 1006.5
20260505053933 57 342 1.0 2.0 0.00 0.00 0.00 65 1006.3
20260505053430 57 338 2.0 2.0 0.00 0.00 0.00 64 1006.5
20260505052927 58 335 1.0 2.0 0.00 0.00 0.00 62 1006.5
20260505052424 59 316 1.0 1.0 0.00 0.00 0.00 61 1006.6
20260505051921 59 304 1.0 1.0 0.00 0.00 0.00 59 1006.4
20260505051418 59 282 2.0 2.0 0.00 0.00 0.00 59 1006.5
20260505050916 59 296 1.0 1.0 0.00 0.00 0.00 60 1006.6
20260505050414 59 30 2.0 3.0 0.00 0.00 0.00 60 1006.3
20260505041342 60 311 1.0 1.0 0.00 0.00 0.00 59 1006.1
20260505040839 61 309 2.0 2.0 0.00 0.00 0.00 56 1006.1
20260505040336 61 274 2.0 3.0 0.00 0.00 0.00 56 1005.9
20260505035833 61 0 1.0 2.0 0.00 0.00 0.00 56 1005.7
20260505035329 61 300 2.0 2.0 0.00 0.00 0.00 56 1005.8
20260505034826 60 306 1.0 1.0 0.00 0.00 0.00 58 1005.9
20260505034323 60 305 2.0 2.0 0.00 0.00 0.00 58 1005.9
20260505033820 60 309 1.0 1.0 0.00 0.00 0.00 59 1005.7
20260505033317 60 309 1.0 2.0 0.00 0.00 0.00 58 1005.6
20260505032815 60 311 2.0 2.0 0.00 0.00 0.00 59 1005.8
20260505032311 60 271 3.0 3.0 0.00 0.00 0.00 60 1005.6
20260505031808 60 332 1.0 1.0 0.00 0.00 0.00 60 1005.7
20260505031304 60 290 1.0 1.0 0.00 0.00 0.00 61 1005.6
20260505030802 60 343 2.0 2.0 0.00 0.00 0.00 61 1005.8
20260505030258 60 338 1.0 2.0 0.00 0.00 0.00 61 1005.7
20260505025753 60 349 2.0 2.0 0.00 0.00 0.00 60 1005.8
20260505025251 60 311 2.0 2.0 0.00 0.00 0.00 60 1005.7
20260505024749 59 32 3.0 3.0 0.00 0.00 0.00 61 1005.8
20260505024246 59 319 0.0 1.0 0.00 0.00 0.00 63 1005.8
20260505023744 58 310 1.0 2.0 0.00 0.00 0.00 64 1005.7
20260505023241 57 342 1.0 1.0 0.00 0.00 0.00 66 1005.6
20260505022738 57 32 4.0 6.0 0.00 0.00 0.00 68 1005.6
20260505022235 56 14 3.0 5.0 0.00 0.00 0.00 70 1005.6
20260505021732 56 355 3.0 3.0 0.00 0.00 0.00 70 1005.5
20260505021229 56 343 2.0 3.0 0.00 0.00 0.00 71 1005.4
20260505020724 55 340 2.0 3.0 0.00 0.00 0.00 72 1005.4
20260505020220 55 334 1.0 1.0 0.00 0.00 0.00 73 1005.5
20260505015718 55 334 2.0 3.0 0.00 0.00 0.00 74 1005.4
20260505015214 55 345 1.0 2.0 0.00 0.00 0.00 75 1005.3
20260505014711 55 24 2.0 3.0 0.00 0.00 0.00 75 1005.4
20260505014209 55 5 2.0 2.0 0.00 0.00 0.00 75 1005.3
20260505013705 55 342 1.0 2.0 0.00 0.00 0.00 75 1005.2
20260505013202 54 333 1.0 2.0 0.00 0.00 0.00 75 1005.3
20260505012701 54 310 0.0 1.0 0.00 0.00 0.00 75 1005.0
20260505012157 54 30 2.0 3.0 0.00 0.00 0.00 75 1004.8
20260505011653 53 305 1.0 2.0 0.00 0.00 0.00 76 1004.9
20260505011150 53 351 3.0 5.0 0.00 0.00 0.00 78 1004.8
20260505010645 52 264 3.0 3.0 0.00 0.00 0.00 80 1005.0
20260505010143 52 321 1.0 1.0 0.00 0.00 0.00 80 1005.0
20260505005638 51 315 0.0 1.0 0.00 0.00 0.00 82 1004.8
20260505005136 51 320 0.0 0.0 0.00 0.00 0.00 83 1004.9
20260505004633 51 310 1.0 1.0 0.00 0.00 0.00 83 1004.8
20260505004129 51 306 0.0 1.0 0.00 0.00 0.00 83 1004.5
20260505003627 51 312 0.0 0.0 0.00 0.00 0.00 83 1004.4
20260505003124 51 313 1.0 1.0 0.00 0.00 0.00 83 1004.4
20260505002620 51 304 1.0 1.0 0.00 0.00 0.00 82 1004.3
20260505002119 52 312 0.0 0.0 0.00 0.00 0.00 81 1004.2
20260505001615 52 310 0.0 0.0 0.00 0.00 0.00 80 1004.0
20260505001113 53 311 1.0 1.0 0.00 0.00 0.00 79 1003.8
20260505000610 53 306 1.0 1.0 0.00 0.00 0.00 77 1003.9
20260505000108 54 304 2.0 2.0 0.00 0.00 0.00 75 1003.9
20260504235604 55 312 2.0 2.0 0.00 0.00 0.00 73 1003.6
20260504235100 56 305 2.0 2.0 0.00 0.00 0.00 68 1003.7
20260504234557 57 303 1.0 1.0 0.00 0.00 0.00 66 1003.6
20260504234055 59 305 1.0 1.0 0.00 0.00 0.00 63 1003.6
20260504233550 62 293 1.0 1.0 0.00 0.00 0.00 58 1003.3
20260504233047 67 305 1.0 1.0 0.00 0.00 0.00 41 1003.3
20260504232544 67 305 0.0 1.0 0.00 0.00 0.00 41 1003.3
20260504232042 67 306 0.0 1.0 0.00 0.00 0.00 41 1003.1
20260504231538 68 305 1.0 1.0 0.00 0.00 0.00 40 1003.1
20260504231034 68 307 1.0 1.0 0.00 0.00 0.00 40 1002.8
20260504230530 68 307 0.0 1.0 0.00 0.00 0.00 40 1002.8
20260504230030 68 308 0.0 1.0 0.00 0.00 0.00 39 1002.7
20260504225526 68 305 1.0 1.0 0.00 0.00 0.00 39 1002.7
20260504225023 68 307 0.0 0.0 0.00 0.00 0.00 40 1002.9
20260504224520 69 306 1.0 1.0 0.00 0.00 0.00 38 1002.8
20260504224017 68 307 1.0 1.0 0.00 0.00 0.00 40 1002.8
20260504223514 68 306 1.0 1.0 0.00 0.00 0.00 40 1002.6
20260504223010 68 307 0.0 0.0 0.00 0.00 0.00 40 1002.4
20260504222507 69 299 1.0 1.0 0.00 0.00 0.00 38 1002.4
20260504222004 69 307 1.0 1.0 0.00 0.00 0.00 38 1002.5
20260504221501 69 305 2.0 3.0 0.00 0.00 0.00 38 1002.6
20260504220958 69 303 1.0 2.0 0.00 0.00 0.00 39 1002.6
20260504220454 70 307 1.0 1.0 0.00 0.00 0.00 39 1002.5
20260504215951 69 309 1.0 2.0 0.00 0.00 0.00 38 1002.7
20260504215448 70 290 0.0 1.0 0.00 0.00 0.00 38 1002.6
20260504214945 71 304 1.0 2.0 0.00 0.00 0.00 38 1002.5
20260504214441 71 287 0.0 1.0 0.00 0.00 0.00 37 1002.6
20260504213938 71 307 2.0 3.0 0.00 0.00 0.00 37 1002.5
20260504213434 71 280 2.0 3.0 0.00 0.00 0.00 37 1002.5
20260504212932 71 307 1.0 1.0 0.00 0.00 0.00 37 1002.6
20260504212427 71 304 1.0 1.0 0.00 0.00 0.00 37 1002.6
20260504211925 71 304 1.0 1.0 0.00 0.00 0.00 37 1002.5
20260504211421 71 271 2.0 3.0 0.00 0.00 0.00 38 1002.5
20260504210919 71 274 2.0 3.0 0.00 0.00 0.00 37 1002.3
20260504210415 71 310 1.0 2.0 0.00 0.00 0.00 37 1002.4
20260504205913 71 307 2.0 2.0 0.00 0.00 0.00 38 1002.6
20260504205410 71 302 2.0 2.0 0.00 0.00 0.00 38 1002.6
20260504204908 72 308 1.0 1.0 0.00 0.00 0.00 36 1002.5
20260504204406 72 307 2.0 2.0 0.00 0.00 0.00 37 1002.5
20260504203906 71 307 1.0 1.0 0.00 0.00 0.00 37 1002.4
20260504203402 72 308 1.0 2.0 0.00 0.00 0.00 37 1002.4
20260504202858 71 308 1.0 1.0 0.00 0.00 0.00 37 1002.6
20260504202355 71 303 2.0 2.0 0.00 0.00 0.00 38 1002.5
20260504201851 71 304 1.0 1.0 0.00 0.00 0.00 38 1002.6
20260504201349 71 301 2.0 2.0 0.00 0.00 0.00 39 1002.5
20260504200846 70 296 1.0 2.0 0.00 0.00 0.00 39 1002.5
20260504200343 69 308 1.0 2.0 0.00 0.00 0.00 40 1002.5
20260504195839 69 309 1.0 1.0 0.00 0.00 0.00 40 1002.4
20260504195335 69 297 3.0 3.0 0.00 0.00 0.00 39 1002.3
20260504194832 69 309 3.0 5.0 0.00 0.00 0.00 39 1002.6
20260504194328 69 301 1.0 2.0 0.00 0.00 0.00 40 1002.4
20260504193824 70 300 0.0 1.0 0.00 0.00 0.00 40 1002.7
20260504193322 70 300 2.0 2.0 0.00 0.00 0.00 39 1002.6
20260504192820 70 302 2.0 2.0 0.00 0.00 0.00 40 1002.8
20260504192318 70 304 1.0 1.0 0.00 0.00 0.00 40 1002.9
20260504191816 69 305 1.0 1.0 0.00 0.00 0.00 41 1002.8
20260504191313 69 306 2.0 2.0 0.00 0.00 0.00 41 1002.9
20260504190809 68 304 1.0 1.0 0.00 0.00 0.00 42 1003.0
20260504190305 67 310 0.0 0.0 0.00 0.00 0.00 42 1002.9
20260504185801 67 304 1.0 2.0 0.00 0.00 0.00 41 1003.0
20260504185258 67 305 1.0 1.0 0.00 0.00 0.00 41 1003.3
20260504184755 67 306 1.0 1.0 0.00 0.00 0.00 42 1003.1
20260504184250 67 307 0.0 0.0 0.00 0.00 0.00 41 1003.0
20260504183746 67 306 1.0 2.0 0.00 0.00 0.00 41 1003.3
20260504183243 67 307 1.0 1.0 0.00 0.00 0.00 40 1002.9
20260504182742 67 308 1.0 2.0 0.00 0.00 0.00 39 1002.9
20260504182238 67 305 1.0 1.0 0.00 0.00 0.00 40 1003.0
20260504181736 68 308 2.0 3.0 0.00 0.00 0.00 39 1002.8
20260504181233 68 308 2.0 2.0 0.00 0.00 0.00 39 1002.9
20260504180732 68 300 1.0 2.0 0.00 0.00 0.00 38 1003.0
20260504180231 68 279 2.0 2.0 0.00 0.00 0.00 39 1002.9
20260504175728 68 303 2.0 2.0 0.00 0.00 0.00 38 1003.0
20260504175224 68 309 1.0 2.0 0.00 0.00 0.00 37 1002.8
20260504174723 68 310 1.0 2.0 0.00 0.00 0.00 38 1002.6
20260504174220 68 261 3.0 5.0 0.00 0.00 0.00 37 1003.1
20260504173716 68 318 2.0 2.0 0.00 0.00 0.00 37 1002.9
20260504173213 68 288 3.0 5.0 0.00 0.00 0.00 38 1002.8
20260504172710 69 278 5.0 7.0 0.00 0.00 0.00 36 1002.9
20260504172206 69 320 2.0 3.0 0.00 0.00 0.00 37 1002.8
20260504171703 70 278 5.0 8.0 0.00 0.00 0.00 35 1002.7
20260504171200 71 302 3.0 6.0 0.00 0.00 0.00 34 1002.8
20260504170656 70 281 3.0 5.0 0.00 0.00 0.00 36 1002.7
20260504170154 71 305 1.0 2.0 0.00 0.00 0.00 36 1002.9